Погода в Пермасе

Россия / Вологодская область     59°20′08″N   45°36′19″E
темп.,
°C
ветер,
м/с
пор.,
м/с
влажн.,
%
обл.,
%
осадки,
мм/ч
давл.,
гПа
погр.,
м
13 апреля, вт
вт1300:00+4ююв31099100 0.0 1036277
03:00+4ююв41095100 0.0 1035397
06:00+4ююв41198100 0.0 1033414
09:00+5ю31098100 0.0 1032373
12:00+7ю31097100 0.0 1030359
15:00+9ююз4993100 0.0 1029413
18:00+9ю41296100 0.0 1027383
21:00+8ю41297100 0.0 1027306
14 апреля, ср
ср1400:00+6ю31197100 0.0 1026237
03:00+5ю3109283 0.0 1026197
06:00+5ю3108898 0.0 1025189
09:00+11ююз496953 0.0 1024349
12:00+15ююз4956100 0.0 1023736
15:00+16ю4957100 0.0 1022933
18:00+13ю3106785 0.0 1021291
21:00+9ююз31282100 0.0 1021262
15 апреля, чт
чт1500:00+8ююз3118297 0.0 1020239
03:00+6ююз2886100 0.0 1019134
06:00+6з1186100 0.0 101924
09:00+9с3383100 0.0 1020463
12:00+6ссв4786100 0.0 1022509
15:00+4ссв41092100 0.2 1024528
18:00+3ссв31096100 1.0 1025478
21:00+4ссв31087100 1.0 1026613
16 апреля, пт
пт1600:00+2св31175100 0.0 1027406
03:000ссв3108462 0.0 1028277
06:000св310775 0.0 1029359
09:00+5св36535 0.0 1029766
12:00+8св344250 0.0 10291141
15:00+9св344045 0.0 10291313
18:00+7ссв255211 0.0 1029261
21:00+3св227137 0.0 103026
17 апреля, сб
сб1700:00+1св117648 0.0 103112
03:000с11784 0.0 103210
06:00+1ссз137420 0.0 103298
09:00+6ссз35555 0.0 1031787
12:00+9ссз354794 0.0 10301496
15:00+11ссз4742100 0.0 10282068
18:00+9ссз485264 0.0 10281079
21:00+5с410685 0.0 1030659